NUSAT-5 (MARYAM) (43204 NORAD) Tracking and Keplerian Element Data

This shows tracking and keplerian element data for the satellite.

Feedback or suggestion? Click here.




ElementValue
Catalog43204
NameNUSAT-5 (MARYAM)
Epoch Orbit4808
Epoch Day351.79578395
Epoch Year2018
RAAN117.2511
Inclination97.3733
Eccentricity0.0016696
Argument of Perigee221.6123
Mean Anonmoly272.9375
Mean Motion15.23655612
Decay Rate1.079E-05
L11 43204U 18015K 18351.79578395 .00001079 00000-0 47827-4 0 9998
L22 43204 97.3733 117.2511 0016696 221.6123 272.9375 15.23655612 48081

Live tracking and technical data element details for NUSAT-5 (MARYAM) (NORAD 43204). NUSAT-5 (MARYAM) can be tracked NOW for your location showing map with azimuth and elevation plus other details from your city location.

Track the satellite on the map from your city or location and see movement details for azimuth, elevation, latitude, longitude, range, height, and movement on the map or in text.







IsCatalogInMostPopularTable: catalog: 43204, numindb: 139
Update: records affected: 1



GetName: 43204 NUSAT-5 (MARYAM)

Hit Count: updated at: Tue, 18 Dec 2018 22:01:14 GMT